EN

Hourly Weather Abbey

Today, 28 November, Saturday

Time Temperature Precipitation Wind Pressure Humidity
00:00 -3°C° 0 mm 4 mps 695 mmHg 74%
01:00 -2°C° 0 mm 5 mps 695 mmHg 69%
02:00 -2°C° 0 mm 6 mps 695 mmHg 64%
03:00 -1°C° 0 mm 7 mps 694 mmHg 61%
04:00 0°C° 0 mm 8 mps 694 mmHg 58%
05:00 +1°C° 0 mm 10 mps 694 mmHg 55%
06:00 +1°C° 0 mm 10 mps 694 mmHg 56%
07:00 0°C° 0 mm 10 mps 695 mmHg 58%
08:00 -1°C° 0 mm 11 mps 695 mmHg 60%
09:00 -3°C° 0 mm 10 mps 697 mmHg 68%
10:00 -5°C° 0 mm 10 mps 698 mmHg 77%
11:00 -8°C° 0 mm 9 mps 700 mmHg 85%
12:00 -8°C° 0 mm 8 mps 701 mmHg 86%
13:00 -8°C° 0 mm 7 mps 703 mmHg 86%
14:00 -8°C° 0 mm 6 mps 704 mmHg 87%
15:00 -9°C° 0 mm 6 mps 705 mmHg 88%
16:00 -10°C° 0 mm 5 mps 706 mmHg 88%
17:00 -10°C° 0 mm 5 mps 707 mmHg 89%
18:00 -11°C° 0 mm 5 mps 708 mmHg 89%
19:00 -12°C° 0 mm 5 mps 708 mmHg 90%
20:00 -11°C° 0 mm 4 mps 709 mmHg 90%
21:00 -11°C° 0 mm 4 mps 709 mmHg 89%
22:00 -12°C° 0 mm 4 mps 710 mmHg 88%
23:00 -12°C° 0 mm 4 mps 710 mmHg 87%

Tomorrow, 29 November, Sunday

Time Temperature Precipitation Wind Pressure Humidity
00:00 -12°C° 0 mm 4 mps 710 mmHg 86%
01:00 -12°C° 0 mm 4 mps 710 mmHg 85%
02:00 -12°C° 0 mm 4 mps 710 mmHg 85%
03:00 -11°C° 0 mm 4 mps 710 mmHg 83%
04:00 -11°C° 0 mm 4 mps 710 mmHg 81%
05:00 -11°C° 0 mm 4 mps 709 mmHg 79%
06:00 -11°C° 0 mm 4 mps 709 mmHg 77%
07:00 -10°C° 0 mm 4 mps 708 mmHg 74%
08:00 -11°C° 0 mm 5 mps 708 mmHg 72%
09:00 -8°C° 0 mm 5 mps 707 mmHg 73%
10:00 -7°C° 0 mm 5 mps 707 mmHg 74%
11:00 -5°C° 0 mm 6 mps 707 mmHg 75%
12:00 -4°C° 0 mm 6 mps 706 mmHg 75%
13:00 -4°C° 0 mm 6 mps 706 mmHg 75%
14:00 -3°C° 0 mm 6 mps 705 mmHg 76%
15:00 -4°C° 0 mm 5 mps 704 mmHg 77%
16:00 -4°C° 0 mm 5 mps 704 mmHg 78%
17:00 -5°C° 0 mm 5 mps 703 mmHg 79%
18:00 -4°C° 0 mm 4 mps 702 mmHg 78%
19:00 -4°C° 0 mm 4 mps 702 mmHg 78%
20:00 -5°C° 0 mm 4 mps 702 mmHg 77%
21:00 -5°C° 0 mm 4 mps 701 mmHg 76%
22:00 -5°C° 0 mm 4 mps 701 mmHg 74%
23:00 -5°C° 0 mm 4 mps 700 mmHg 73%

Day after tomorrow, 30 November, Monday

Time Temperature Precipitation Wind Pressure Humidity
00:00 -5°C° 0 mm 4 mps 700 mmHg 71%
01:00 -5°C° 0 mm 4 mps 699 mmHg 69%
02:00 -5°C° 0 mm 4 mps 698 mmHg 67%
03:00 -5°C° 0 mm 4 mps 697 mmHg 67%
04:00 -5°C° 0 mm 4 mps 697 mmHg 66%
05:00 -6°C° 0 mm 5 mps 696 mmHg 66%
06:00 -5°C° 0 mm 5 mps 695 mmHg 66%
07:00 -4°C° 0 mm 5 mps 695 mmHg 66%
08:00 -3°C° 0 mm 6 mps 694 mmHg 66%
09:00 -2°C° 0 mm 7 mps 693 mmHg 65%
10:00 0°C° 0 mm 8 mps 693 mmHg 64%
11:00 +1°C° 0 mm 9 mps 692 mmHg 64%
12:00 +1°C° 0 mm 10 mps 691 mmHg 62%
13:00 +2°C° 0 mm 10 mps 691 mmHg 61%
14:00 +2°C° 0 mm 11 mps 690 mmHg 59%
15:00 +1°C° 0 mm 10 mps 690 mmHg 61%
16:00 +1°C° 0 mm 10 mps 690 mmHg 64%
17:00 0°C° 0 mm 9 mps 690 mmHg 66%
18:00 -1°C° 0.1 mm 9 mps 690 mmHg 76%
19:00 -1°C° 0.1 mm 9 mps 690 mmHg 86%
20:00 -3°C° 0.1 mm 9 mps 690 mmHg 96%
21:00 -3°C° 1.2 mm 10 mps 691 mmHg 93%
22:00 -5°C° 1.2 mm 12 mps 693 mmHg 90%
23:00 -5°C° 1.2 mm 13 mps 694 mmHg 88%

1 December, Tuesday

Time Temperature Precipitation Wind Pressure Humidity
00:00 -6°C° 0.1 mm 12 mps 695 mmHg 83%
01:00 -6°C° 0.1 mm 11 mps 696 mmHg 78%
02:00 -5°C° 0.1 mm 10 mps 697 mmHg 73%
03:00 -7°C° 0 mm 11 mps 698 mmHg 73%
04:00 -7°C° 0 mm 11 mps 699 mmHg 74%
05:00 -8°C° 0 mm 11 mps 700 mmHg 74%
06:00 -8°C° 0 mm 11 mps 700 mmHg 73%
07:00 -8°C° 0 mm 11 mps 701 mmHg 73%
08:00 -9°C° 0 mm 11 mps 701 mmHg 72%
09:00 -8°C° 0 mm 11 mps 702 mmHg 73%
10:00 -8°C° 0 mm 11 mps 703 mmHg 75%
11:00 -8°C° 0 mm 11 mps 704 mmHg 76%
12:00 -8°C° 0 mm 10 mps 704 mmHg 78%
13:00 -8°C° 0 mm 10 mps 705 mmHg 81%
14:00 -8°C° 0 mm 10 mps 705 mmHg 83%
15:00 -9°C° 0.1 mm 10 mps 706 mmHg 84%
16:00 -9°C° 0.1 mm 9 mps 707 mmHg 85%
17:00 -9°C° 0.1 mm 9 mps 707 mmHg 86%
18:00 -8°C° 0.1 mm 8 mps 708 mmHg 88%
19:00 -8°C° 0.1 mm 7 mps 709 mmHg 91%
20:00 -8°C° 0.1 mm 6 mps 710 mmHg 93%
21:00 -8°C° 0.1 mm 5 mps 710 mmHg 92%
22:00 -8°C° 0.1 mm 5 mps 711 mmHg 92%
23:00 -9°C° 0.1 mm 4 mps 712 mmHg 92%

2 December, Wednesday

Time Temperature Precipitation Wind Pressure Humidity
00:00 -9°C° 0 mm 4 mps 712 mmHg 92%
01:00 -10°C° 0 mm 4 mps 713 mmHg 93%
02:00 -10°C° 0 mm 3 mps 713 mmHg 93%
03:00 -9°C° 0 mm 2 mps 714 mmHg 93%
04:00 -10°C° 0 mm 2 mps 714 mmHg 93%
05:00 -9°C° 0 mm 1 mps 714 mmHg 92%
06:00 -10°C° 0 mm 2 mps 715 mmHg 92%
07:00 -10°C° 0 mm 2 mps 715 mmHg 91%
08:00 -10°C° 0 mm 3 mps 715 mmHg 90%
09:00 -9°C° 0 mm 3 mps 715 mmHg 89%
10:00 -9°C° 0 mm 3 mps 715 mmHg 87%
11:00 -8°C° 0 mm 3 mps 715 mmHg 85%
12:00 -7°C° 0 mm 3 mps 715 mmHg 84%
13:00 -7°C° 0 mm 3 mps 715 mmHg 83%
14:00 -6°C° 0 mm 3 mps 714 mmHg 82%
15:00 -7°C° 0 mm 3 mps 714 mmHg 79%
16:00 -7°C° 0 mm 3 mps 713 mmHg 76%
17:00 -8°C° 0 mm 3 mps 713 mmHg 73%
18:00 -7°C° 0 mm 3 mps 713 mmHg 71%
19:00 -7°C° 0 mm 3 mps 712 mmHg 69%
20:00 -7°C° 0 mm 3 mps 712 mmHg 68%
21:00 -7°C° 0 mm 3 mps 712 mmHg 69%
22:00 -7°C° 0 mm 3 mps 712 mmHg 69%
23:00 -6°C° 0 mm 3 mps 711 mmHg 70%

3 December, Thursday

Time Temperature Precipitation Wind Pressure Humidity
00:00 -6°C° 0 mm 3 mps 711 mmHg 71%
01:00 -6°C° 0 mm 3 mps 711 mmHg 71%
02:00 -6°C° 0 mm 3 mps 711 mmHg 72%
03:00 -6°C° 0 mm 3 mps 710 mmHg 72%
04:00 -6°C° 0 mm 3 mps 710 mmHg 72%
05:00 -6°C° 0 mm 3 mps 710 mmHg 72%
06:00 -6°C° 0 mm 3 mps 709 mmHg 71%
07:00 -5°C° 0 mm 2 mps 709 mmHg 71%
08:00 -5°C° 0 mm 2 mps 709 mmHg 70%
09:00 -4°C° 0 mm 2 mps 709 mmHg 70%
10:00 -3°C° 0 mm 2 mps 709 mmHg 70%
11:00 -2°C° 0 mm 2 mps 709 mmHg 70%
12:00 -1°C° 0 mm 2 mps 708 mmHg 70%
13:00 -1°C° 0 mm 2 mps 708 mmHg 69%
14:00 +1°C° 0 mm 2 mps 708 mmHg 68%
15:00 +1°C° 0 mm 1 mps 707 mmHg 67%
16:00 +1°C° 0 mm 1 mps 707 mmHg 66%
17:00 0°C° 0 mm 1 mps 707 mmHg 64%
18:00 0°C° 0 mm 1 mps 707 mmHg 64%
19:00 0°C° 0 mm 1 mps 707 mmHg 63%
20:00 0°C° 0 mm 1 mps 707 mmHg 62%
21:00 -2°C° 0 mm 2 mps 707 mmHg 62%
22:00 -2°C° 0 mm 2 mps 707 mmHg 61%
23:00 -2°C° 0 mm 2 mps 706 mmHg 60%
Show more